Time,TemperatureF,DewpointF,PressureIn,WindDirection,WindDirectionDegrees,WindSpeedMPH,WindSpeedGustMPH,Humidity,HourlyPrecipIn,Conditions,Clouds,dailyrainin,SoftwareType,DateUTC
2013-06-26 00:00:00,64.7,-23.0,29.57,North,360,2.0,6.0,0,0.00,,,0.00,Rainwise IP-100,2013-06-26 04:00:00,
2013-06-26 00:01:00,64.7,-23.0,29.57,North,360,2.0,6.0,0,0.00,,,0.00,Rainwise IP-100,2013-06-26 04:01:00,
2013-06-26 00:06:00,64.3,-23.0,29.57,WNW,292,1.0,3.0,0,0.00,,,0.00,Rainwise IP-100,2013-06-26 04:06:00,
2013-06-26 00:11:00,63.7,-23.0,29.56,North,360,1.0,2.0,0,0.00,,,0.00,Rainwise IP-100,2013-06-26 04:11:00,
2013-06-26 00:16:00,63.4,-23.0,29.56,NW,315,2.0,2.0,0,0.00,,,0.00,Rainwise IP-100,2013-06-26 04:16:00,
2013-06-26 00:21:00,63.5,-23.0,29.56,NW,315,0.0,2.0,0,0.00,,,0.00,Rainwise IP-100,2013-06-26 04:21:00,
2013-06-26 00:26:00,63.4,-23.0,29.56,NW,315,1.0,2.0,0,0.00,,,0.00,Rainwise IP-100,2013-06-26 04:26:00,
2013-06-26 00:31:00,63.4,-23.0,29.56,NW,315,0.0,2.0,0,0.00,,,0.00,Rainwise IP-100,2013-06-26 04:31:00,
2013-06-26 00:36:00,63.4,-23.0,29.56,NE,45,1.0,2.0,0,0.00,,,0.00,Rainwise IP-100,2013-06-26 04:36:00,
2013-06-26 00:41:00,63.3,-23.0,29.56,WNW,292,1.0,2.0,0,0.00,,,0.00,Rainwise IP-100,2013-06-26 04:41:00,
2013-06-26 00:46:00,63.1,-23.0,29.56,WNW,292,0.0,2.0,0,0.00,,,0.00,Rainwise IP-100,2013-06-26 04:46:00,
2013-06-26 00:51:00,63.3,-23.0,29.56,WNW,292,0.0,0.0,0,0.00,,,0.00,Rainwise IP-100,2013-06-26 04:51:00,
2013-06-26 00:56:00,63.5,-23.0,29.56,WNW,292,0.0,0.0,0,0.00,,,0.00,Rainwise IP-100,2013-06-26 04:56:00,
2013-06-26 01:01:00,63.7,-23.0,29.56,WNW,292,0.0,0.0,0,0.00,,,0.00,Rainwise IP-100,2013-06-26 05:01:00,
2013-06-26 01:08:00,63.9,-23.0,29.56,WNW,292,0.0,0.0,0,0.00,,,0.00,Rainwise IP-100,2013-06-26 05:08:00,
2013-06-26 01:13:00,64.4,-23.0,29.56,East,90,2.0,2.0,0,0.00,,,0.00,Rainwise IP-100,2013-06-26 05:13:00,
2013-06-26 01:18:00,64.4,-23.0,29.56,East,90,0.0,2.0,0,0.00,,,0.00,Rainwise IP-100,2013-06-26 05:18:00,
2013-06-26 01:23:00,64.8,-23.0,29.56,East,90,2.0,2.0,0,0.00,,,0.00,Rainwise IP-100,2013-06-26 05:23:00,
2013-06-26 01:28:00,64.9,-23.0,29.56,East,90,1.0,2.0,0,0.00,,,0.00,Rainwise IP-100,2013-06-26 05:28:00,
2013-06-26 01:33:00,65.1,-23.0,29.56,East,90,1.0,2.0,0,0.00,,,0.00,Rainwise IP-100,2013-06-26 05:33:00,
2013-06-26 01:38:00,65.3,-23.0,29.56,East,90,2.0,2.0,0,0.00,,,0.00,Rainwise IP-100,2013-06-26 05:38:00,
2013-06-26 01:43:00,65.3,-23.0,29.56,ESE,112,0.0,2.0,0,0.00,,,0.00,Rainwise IP-100,2013-06-26 05:43:00,
2013-06-26 01:48:00,65.1,-23.0,29.56,ESE,112,0.0,0.0,0,0.00,,,0.00,Rainwise IP-100,2013-06-26 05:48:00,
2013-06-26 01:53:00,65.2,-23.0,29.56,ESE,112,0.0,0.0,0,0.00,,,0.00,Rainwise IP-100,2013-06-26 05:53:00,
2013-06-26 01:58:00,65.3,-23.0,29.56,ESE,112,0.0,0.0,0,0.00,,,0.00,Rainwise IP-100,2013-06-26 05:58:00,
2013-06-26 02:03:00,65.5,-23.0,29.56,ESE,112,1.0,1.0,0,0.00,,,0.00,Rainwise IP-100,2013-06-26 06:03:00,
2013-06-26 02:08:00,65.4,-23.0,29.56,ESE,112,1.0,2.0,0,0.00,,,0.00,Rainwise IP-100,2013-06-26 06:08:00,
2013-06-26 02:13:00,65.6,-23.0,29.56,ESE,112,2.0,2.0,0,0.00,,,0.00,Rainwise IP-100,2013-06-26 06:13:00,
2013-06-26 02:18:00,65.8,-23.0,29.56,ESE,112,2.0,2.0,0,0.00,,,0.00,Rainwise IP-100,2013-06-26 06:18:00,
2013-06-26 02:23:00,65.8,-23.0,29.56,ESE,112,1.0,2.0,0,0.00,,,0.00,Rainwise IP-100,2013-06-26 06:23:00,
2013-06-26 02:28:00,66.1,-23.0,29.56,ESE,112,0.0,1.0,0,0.00,,,0.00,Rainwise IP-100,2013-06-26 06:28:00,
2013-06-26 02:33:00,66.1,-23.0,29.56,ESE,112,0.0,0.0,0,0.00,,,0.00,Rainwise IP-100,2013-06-26 06:33:00,
2013-06-26 02:37:00,66.3,-23.0,29.56,ESE,112,1.0,0.0,0,0.00,,,0.00,Rainwise IP-100,2013-06-26 06:37:00,
2013-06-26 02:42:00,66.1,-23.0,29.56,ESE,112,1.0,2.0,0,0.00,,,0.00,Rainwise IP-100,2013-06-26 06:42:00,
2013-06-26 02:47:00,65.9,-23.0,29.56,ESE,112,2.0,2.0,0,0.00,,,0.00,Rainwise IP-100,2013-06-26 06:47:00,
2013-06-26 02:52:00,66.1,-23.0,29.56,ESE,112,1.0,2.0,0,0.00,,,0.00,Rainwise IP-100,2013-06-26 06:52:00,
2013-06-26 02:57:00,66.1,-23.0,29.56,ESE,112,1.0,2.0,0,0.00,,,0.00,Rainwise IP-100,2013-06-26 06:57:00,
2013-06-26 03:02:00,66.5,-23.0,29.56,ESE,112,0.0,2.0,0,0.00,,,0.00,Rainwise IP-100,2013-06-26 07:02:00,
2013-06-26 03:07:00,66.6,-23.0,29.56,ESE,112,0.0,0.0,0,0.00,,,0.00,Rainwise IP-100,2013-06-26 07:07:00,
2013-06-26 03:12:00,66.6,-23.0,29.56,ESE,112,0.0,2.0,0,0.00,,,0.00,Rainwise IP-100,2013-06-26 07:12:00,
2013-06-26 03:17:00,66.7,-23.0,29.56,ESE,112,0.0,2.0,0,0.00,,,0.00,Rainwise IP-100,2013-06-26 07:17:00,
2013-06-26 03:22:00,66.5,-23.0,29.56,SE,135,2.0,2.0,0,0.00,,,0.00,Rainwise IP-100,2013-06-26 07:22:00,
2013-06-26 03:27:00,66.5,-23.0,29.56,SE,135,0.0,3.0,0,0.00,,,0.00,Rainwise IP-100,2013-06-26 07:27:00,
2013-06-26 03:32:00,66.2,-23.0,29.56,SE,135,0.0,0.0,0,0.00,,,0.00,Rainwise IP-100,2013-06-26 07:32:00,
2013-06-26 03:37:00,64.9,-23.0,29.56,SE,135,0.0,0.0,0,0.00,,,0.00,Rainwise IP-100,2013-06-26 07:37:00,
2013-06-26 03:42:00,64.9,-23.0,29.56,SE,135,0.0,0.0,0,0.00,,,0.00,Rainwise IP-100,2013-06-26 07:42:00,
2013-06-26 03:47:00,64.6,-23.0,29.56,SE,135,0.0,0.0,0,0.00,,,0.00,Rainwise IP-100,2013-06-26 07:47:00,
2013-06-26 03:52:00,64.4,-23.0,29.56,SE,135,0.0,0.0,0,0.00,,,0.00,Rainwise IP-100,2013-06-26 07:52:00,
2013-06-26 03:57:00,64.4,-23.0,29.56,SE,135,0.0,0.0,0,0.00,,,0.00,Rainwise IP-100,2013-06-26 07:57:00,
2013-06-26 04:02:00,64.9,-23.0,29.56,SE,135,0.0,0.0,0,0.00,,,0.01,Rainwise IP-100,2013-06-26 08:02:00,
2013-06-26 04:07:00,65.4,-23.0,29.56,SE,135,0.0,0.0,0,0.06,,,0.01,Rainwise IP-100,2013-06-26 08:07:00,
2013-06-26 04:12:00,65.7,-23.0,29.56,SE,135,1.0,2.0,0,0.06,,,0.01,Rainwise IP-100,2013-06-26 08:12:00,
2013-06-26 04:17:00,65.7,-23.0,29.56,SE,135,0.0,2.0,0,0.00,,,0.01,Rainwise IP-100,2013-06-26 08:17:00,
2013-06-26 04:22:00,65.9,-23.0,29.56,SE,135,0.0,1.0,0,0.00,,,0.01,Rainwise IP-100,2013-06-26 08:22:00,
2013-06-26 04:27:00,66.1,-23.0,29.57,SE,135,0.0,0.0,0,0.00,,,0.01,Rainwise IP-100,2013-06-26 08:27:00,
2013-06-26 04:32:00,66.1,-23.0,29.57,SE,135,0.0,0.0,0,0.00,,,0.01,Rainwise IP-100,2013-06-26 08:32:00,
2013-06-26 04:37:00,64.7,-23.0,29.57,WNW,292,2.0,2.0,0,0.00,,,0.01,Rainwise IP-100,2013-06-26 08:37:00,
2013-06-26 04:42:00,63.1,-23.0,29.57,NW,315,2.0,2.0,0,0.00,,,0.01,Rainwise IP-100,2013-06-26 08:42:00,
2013-06-26 04:47:00,62.8,-23.0,29.57,NNE,22,2.0,3.0,0,0.00,,,0.01,Rainwise IP-100,2013-06-26 08:47:00,
2013-06-26 04:52:00,62.7,-23.0,29.57,NNE,22,0.0,2.0,0,0.00,,,0.02,Rainwise IP-100,2013-06-26 08:52:00,
2013-06-26 04:57:00,62.6,-23.0,29.57,NNE,22,0.0,0.0,0,0.06,,,0.02,Rainwise IP-100,2013-06-26 08:57:00,
2013-06-26 05:02:00,63.1,-23.0,29.56,ESE,112,2.0,2.0,0,0.06,,,0.02,Rainwise IP-100,2013-06-26 09:02:00,
2013-06-26 05:07:00,63.5,-23.0,29.56,NNE,22,1.0,2.0,0,0.00,,,0.02,Rainwise IP-100,2013-06-26 09:07:00,
2013-06-26 05:12:00,63.6,-23.0,29.56,NNE,22,0.0,2.0,0,0.00,,,0.02,Rainwise IP-100,2013-06-26 09:12:00,
2013-06-26 05:17:00,63.4,-23.0,29.57,NNE,22,0.0,0.0,0,0.00,,,0.02,Rainwise IP-100,2013-06-26 09:17:00,
2013-06-26 05:22:00,63.3,-23.0,29.57,NW,315,0.0,0.0,0,0.06,,,0.03,Rainwise IP-100,2013-06-26 09:22:00,
2013-06-26 05:27:00,62.9,-23.0,29.57,NW,315,0.0,2.0,0,0.06,,,0.03,Rainwise IP-100,2013-06-26 09:27:00,
2013-06-26 05:32:00,63.1,-23.0,29.57,SSE,157,0.0,2.0,0,0.00,,,0.03,Rainwise IP-100,2013-06-26 09:32:00,
2013-06-26 05:37:00,63.0,-23.0,29.57,NW,315,0.0,2.0,0,0.00,,,0.03,Rainwise IP-100,2013-06-26 09:37:00,
2013-06-26 05:42:00,62.8,-23.0,29.57,NW,315,0.0,1.0,0,0.00,,,0.03,Rainwise IP-100,2013-06-26 09:42:00,
2013-06-26 05:47:00,62.9,-23.0,29.56,SSW,202,1.0,3.0,0,0.00,,,0.03,Rainwise IP-100,2013-06-26 09:47:00,
2013-06-26 05:52:00,63.6,-23.0,29.56,South,180,1.0,4.0,0,0.00,,,0.03,Rainwise IP-100,2013-06-26 09:52:00,
2013-06-26 05:57:00,63.9,-23.0,29.56,ESE,112,2.0,2.0,0,0.00,,,0.03,Rainwise IP-100,2013-06-26 09:57:00,
2013-06-26 06:02:00,63.9,-23.0,29.56,ESE,112,2.0,2.0,0,0.06,,,0.04,Rainwise IP-100,2013-06-26 10:02:00,
2013-06-26 06:07:00,64.1,-23.0,29.56,ESE,112,1.0,3.0,0,0.06,,,0.04,Rainwise IP-100,2013-06-26 10:07:00,
2013-06-26 06:12:00,64.1,-23.0,29.56,SE,135,2.0,4.0,0,0.00,,,0.04,Rainwise IP-100,2013-06-26 10:12:00,
2013-06-26 06:17:00,64.2,-23.0,29.56,South,180,2.0,4.0,0,0.00,,,0.04,Rainwise IP-100,2013-06-26 10:17:00,
2013-06-26 06:22:00,64.4,-23.0,29.56,SW,225,2.0,4.0,0,0.00,,,0.04,Rainwise IP-100,2013-06-26 10:22:00,
2013-06-26 06:27:00,63.8,-23.0,29.57,West,270,0.0,2.0,0,0.00,,,0.04,Rainwise IP-100,2013-06-26 10:27:00,
2013-06-26 06:32:00,63.9,-23.0,29.57,NNW,337,0.0,1.0,0,0.00,,,0.04,Rainwise IP-100,2013-06-26 10:32:00,
2013-06-26 06:37:00,63.8,-23.0,29.57,WNW,292,2.0,3.0,0,0.00,,,0.04,Rainwise IP-100,2013-06-26 10:37:00,
2013-06-26 06:42:00,62.6,-23.0,29.58,NW,315,2.0,5.0,0,0.00,,,0.04,Rainwise IP-100,2013-06-26 10:42:00,
2013-06-26 06:45:00,62.6,-23.0,29.58,NNW,337,0.0,3.0,0,0.00,,,0.04,Rainwise IP-100,2013-06-26 10:45:00,
2013-06-26 06:50:00,62.9,-23.0,29.58,SW,225,0.0,1.0,0,0.00,,,0.04,Rainwise IP-100,2013-06-26 10:50:00,
2013-06-26 06:55:00,63.1,-23.0,29.58,SSW,202,0.0,2.0,0,0.00,,,0.04,Rainwise IP-100,2013-06-26 10:55:00,
2013-06-26 07:00:00,63.6,-23.0,29.58,SSW,202,0.0,0.0,0,0.00,,,0.04,Rainwise IP-100,2013-06-26 11:00:00,
2013-06-26 07:05:00,63.8,-23.0,29.58,SSW,202,2.0,2.0,0,0.00,,,0.04,Rainwise IP-100,2013-06-26 11:05:00,
2013-06-26 07:10:00,63.9,-23.0,29.58,South,180,0.0,2.0,0,0.00,,,0.04,Rainwise IP-100,2013-06-26 11:10:00,
2013-06-26 07:15:00,64.1,-23.0,29.58,ESE,112,1.0,2.0,0,0.00,,,0.04,Rainwise IP-100,2013-06-26 11:15:00,
2013-06-26 07:20:00,64.6,-23.0,29.58,ESE,112,0.0,2.0,0,0.00,,,0.04,Rainwise IP-100,2013-06-26 11:20:00,
2013-06-26 07:25:00,64.9,-23.0,29.58,ESE,112,2.0,2.0,0,0.00,,,0.04,Rainwise IP-100,2013-06-26 11:25:00,
2013-06-26 07:30:00,65.3,-23.0,29.58,ESE,112,0.0,2.0,0,0.00,,,0.04,Rainwise IP-100,2013-06-26 11:30:00,
2013-06-26 07:35:00,65.8,-23.0,29.59,ESE,112,0.0,1.0,0,0.00,,,0.04,Rainwise IP-100,2013-06-26 11:35:00,
2013-06-26 07:40:00,66.3,-23.0,29.59,ESE,112,1.0,1.0,0,0.00,,,0.04,Rainwise IP-100,2013-06-26 11:40:00,
2013-06-26 07:45:00,66.5,-23.0,29.60,ESE,112,0.0,1.0,0,0.00,,,0.04,Rainwise IP-100,2013-06-26 11:45:00,
2013-06-26 07:50:00,66.1,-23.0,29.60,ESE,112,0.0,0.0,0,0.00,,,0.04,Rainwise IP-100,2013-06-26 11:50:00,
2013-06-26 07:55:00,66.4,-23.0,29.60,ESE,112,0.0,0.0,0,0.00,,,0.04,Rainwise IP-100,2013-06-26 11:55:00,
2013-06-26 08:00:00,66.7,-23.0,29.60,WSW,247,2.0,2.0,0,0.00,,,0.04,Rainwise IP-100,2013-06-26 12:00:00,
2013-06-26 08:05:00,66.7,-23.0,29.60,SW,225,0.0,2.0,0,0.00,,,0.04,Rainwise IP-100,2013-06-26 12:05:00,
2013-06-26 08:10:00,66.9,-23.0,29.60,NW,315,0.0,2.0,0,0.00,,,0.04,Rainwise IP-100,2013-06-26 12:10:00,
2013-06-26 08:15:00,66.9,-23.0,29.60,WSW,247,2.0,2.0,0,0.00,,,0.04,Rainwise IP-100,2013-06-26 12:15:00,
2013-06-26 08:20:00,66.9,-23.0,29.61,WSW,247,1.0,2.0,0,0.00,,,0.04,Rainwise IP-100,2013-06-26 12:20:00,
2013-06-26 08:25:00,67.1,-23.0,29.61,WSW,247,2.0,2.0,0,0.00,,,0.04,Rainwise IP-100,2013-06-26 12:25:00,
2013-06-26 08:30:00,67.0,-23.0,29.61,WSW,247,2.0,2.0,0,0.00,,,0.04,Rainwise IP-100,2013-06-26 12:30:00,
2013-06-26 08:35:00,67.3,-23.0,29.62,WSW,247,0.0,2.0,0,0.00,,,0.04,Rainwise IP-100,2013-06-26 12:35:00,
2013-06-26 08:40:00,67.3,-23.0,29.62,WSW,247,2.0,2.0,0,0.00,,,0.04,Rainwise IP-100,2013-06-26 12:40:00,
2013-06-26 08:45:00,67.6,-23.0,29.62,WSW,247,0.0,2.0,0,0.00,,,0.04,Rainwise IP-100,2013-06-26 12:45:00,
2013-06-26 08:50:00,68.1,-23.0,29.62,WSW,247,0.0,0.0,0,0.00,,,0.04,Rainwise IP-100,2013-06-26 12:50:00,
2013-06-26 08:55:00,68.7,-23.0,29.62,WSW,247,1.0,1.0,0,0.00,,,0.04,Rainwise IP-100,2013-06-26 12:55:00,
2013-06-26 09:00:00,68.8,-23.0,29.62,WNW,292,0.0,2.0,0,0.00,,,0.04,Rainwise IP-100,2013-06-26 13:00:00,
2013-06-26 09:05:00,68.4,-23.0,29.62,WSW,247,1.0,2.0,0,0.00,,,0.04,Rainwise IP-100,2013-06-26 13:05:00,
2013-06-26 09:10:00,68.3,-23.0,29.62,West,270,1.0,2.0,0,0.00,,,0.04,Rainwise IP-100,2013-06-26 13:10:00,
2013-06-26 09:15:00,68.3,-23.0,29.63,West,270,2.0,2.0,0,0.00,,,0.04,Rainwise IP-100,2013-06-26 13:15:00,
2013-06-26 09:20:00,68.3,-23.0,29.63,West,270,1.0,2.0,0,0.00,,,0.04,Rainwise IP-100,2013-06-26 13:20:00,
2013-06-26 09:25:00,68.4,-23.0,29.63,West,270,1.0,2.0,0,0.00,,,0.04,Rainwise IP-100,2013-06-26 13:25:00,
2013-06-26 09:30:00,68.3,-23.0,29.64,WSW,247,2.0,2.0,0,0.00,,,0.04,Rainwise IP-100,2013-06-26 13:30:00,
2013-06-26 09:35:00,68.3,-23.0,29.64,WSW,247,1.0,2.0,0,0.00,,,0.04,Rainwise IP-100,2013-06-26 13:35:00,
2013-06-26 09:40:00,68.7,-23.0,29.64,WSW,247,1.0,2.0,0,0.00,,,0.04,Rainwise IP-100,2013-06-26 13:40:00,
2013-06-26 09:45:00,68.9,-23.0,29.64,SW,225,2.0,2.0,0,0.00,,,0.04,Rainwise IP-100,2013-06-26 13:45:00,
2013-06-26 09:50:00,69.2,-23.0,29.64,WSW,247,1.0,2.0,0,0.00,,,0.04,Rainwise IP-100,2013-06-26 13:50:00,
2013-06-26 09:55:00,69.5,-23.0,29.65,WSW,247,2.0,2.0,0,0.00,,,0.04,Rainwise IP-100,2013-06-26 13:55:00,
2013-06-26 10:00:00,69.5,-23.0,29.65,NW,315,1.0,2.0,0,0.00,,,0.04,Rainwise IP-100,2013-06-26 14:00:00,
2013-06-26 10:05:00,69.3,-23.0,29.65,NW,315,2.0,2.0,0,0.00,,,0.04,Rainwise IP-100,2013-06-26 14:05:00,
2013-06-26 10:10:00,69.1,-23.0,29.65,NW,315,1.0,2.0,0,0.00,,,0.04,Rainwise IP-100,2013-06-26 14:10:00,
2013-06-26 10:15:00,68.9,-23.0,29.65,NW,315,2.0,2.0,0,0.00,,,0.04,Rainwise IP-100,2013-06-26 14:15:00,
2013-06-26 10:20:00,68.9,-23.0,29.65,NW,315,0.0,2.0,0,0.00,,,0.04,Rainwise IP-100,2013-06-26 14:20:00,
2013-06-26 10:25:00,68.9,-23.0,29.65,NW,315,0.0,2.0,0,0.00,,,0.04,Rainwise IP-100,2013-06-26 14:25:00,
2013-06-26 10:30:00,68.9,-23.0,29.65,West,270,2.0,2.0,0,0.00,,,0.04,Rainwise IP-100,2013-06-26 14:30:00,
2013-06-26 10:35:00,68.9,-23.0,29.65,WNW,292,2.0,2.0,0,0.00,,,0.04,Rainwise IP-100,2013-06-26 14:35:00,
2013-06-26 10:40:00,69.1,-23.0,29.66,WNW,292,2.0,2.0,0,0.00,,,0.04,Rainwise IP-100,2013-06-26 14:40:00,
2013-06-26 10:45:00,69.2,-23.0,29.66,West,270,1.0,2.0,0,0.00,,,0.04,Rainwise IP-100,2013-06-26 14:45:00,
2013-06-26 10:50:00,69.0,-23.0,29.66,West,270,0.0,2.0,0,0.00,,,0.04,Rainwise IP-100,2013-06-26 14:50:00,
2013-06-26 10:55:00,69.2,-23.0,29.66,West,270,1.0,5.0,0,0.00,,,0.04,Rainwise IP-100,2013-06-26 14:55:00,
2013-06-26 11:00:00,69.5,-23.0,29.66,WSW,247,1.0,2.0,0,0.00,,,0.04,Rainwise IP-100,2013-06-26 15:00:00,
2013-06-26 11:05:00,69.9,-23.0,29.66,North,360,0.0,2.0,0,0.00,,,0.04,Rainwise IP-100,2013-06-26 15:05:00,
2013-06-26 11:10:00,70.3,-23.0,29.66,NNW,337,1.0,2.0,0,0.00,,,0.04,Rainwise IP-100,2013-06-26 15:10:00,
2013-06-26 11:15:00,70.6,-23.0,29.66,North,360,1.0,2.0,0,0.00,,,0.04,Rainwise IP-100,2013-06-26 15:15:00,
2013-06-26 11:20:00,70.9,-23.0,29.66,North,360,0.0,3.0,0,0.00,,,0.04,Rainwise IP-100,2013-06-26 15:20:00,
2013-06-26 11:25:00,71.3,-23.0,29.66,ENE,67,0.0,2.0,0,0.00,,,0.04,Rainwise IP-100,2013-06-26 15:25:00,
2013-06-26 11:30:00,71.6,-23.0,29.66,North,360,2.0,2.0,0,0.00,,,0.04,Rainwise IP-100,2013-06-26 15:30:00,
2013-06-26 11:35:00,71.6,-23.0,29.66,NNW,337,2.0,2.0,0,0.00,,,0.04,Rainwise IP-100,2013-06-26 15:35:00,
2013-06-26 11:40:00,71.8,-23.0,29.66,NW,315,1.0,2.0,0,0.00,,,0.04,Rainwise IP-100,2013-06-26 15:40:00,
2013-06-26 11:45:00,71.5,-23.0,29.66,WNW,292,1.0,2.0,0,0.00,,,0.04,Rainwise IP-100,2013-06-26 15:45:00,
2013-06-26 11:50:00,71.3,-23.0,29.66,NNW,337,0.0,2.0,0,0.00,,,0.04,Rainwise IP-100,2013-06-26 15:50:00,
2013-06-26 11:55:00,71.2,-23.0,29.66,WNW,292,2.0,2.0,0,0.00,,,0.04,Rainwise IP-100,2013-06-26 15:55:00,
2013-06-26 12:00:00,71.1,-23.0,29.66,East,90,2.0,2.0,0,0.00,,,0.04,Rainwise IP-100,2013-06-26 16:00:00,
2013-06-26 12:05:00,70.2,-23.0,29.67,NW,315,2.0,3.0,0,0.00,,,0.04,Rainwise IP-100,2013-06-26 16:05:00,
2013-06-26 12:10:00,68.8,-23.0,29.67,East,90,3.0,4.0,0,0.00,,,0.04,Rainwise IP-100,2013-06-26 16:10:00,
2013-06-26 12:15:00,67.9,-23.0,29.67,North,360,0.0,6.0,0,0.00,,,0.04,Rainwise IP-100,2013-06-26 16:15:00,
2013-06-26 12:20:00,67.2,-23.0,29.67,ESE,112,2.0,3.0,0,0.00,,,0.04,Rainwise IP-100,2013-06-26 16:20:00,
2013-06-26 12:25:00,66.6,-23.0,29.66,East,90,3.0,4.0,0,0.00,,,0.04,Rainwise IP-100,2013-06-26 16:25:00,
2013-06-26 12:30:00,65.7,-23.0,29.66,SSE,157,1.0,5.0,0,0.00,,,0.04,Rainwise IP-100,2013-06-26 16:30:00,
2013-06-26 12:35:00,65.1,-23.0,29.66,ENE,67,0.0,4.0,0,0.00,,,0.04,Rainwise IP-100,2013-06-26 16:35:00,
2013-06-26 12:40:00,64.7,-23.0,29.66,NE,45,1.0,5.0,0,0.00,,,0.04,Rainwise IP-100,2013-06-26 16:40:00,
2013-06-26 12:45:00,64.4,-23.0,29.66,ESE,112,2.0,6.0,0,0.00,,,0.04,Rainwise IP-100,2013-06-26 16:45:00,
2013-06-26 12:50:00,64.2,-23.0,29.66,SE,135,1.0,5.0,0,0.00,,,0.04,Rainwise IP-100,2013-06-26 16:50:00,
2013-06-26 12:55:00,63.9,-23.0,29.66,ESE,112,1.0,7.0,0,0.00,,,0.04,Rainwise IP-100,2013-06-26 16:55:00,
2013-06-26 13:00:00,63.9,-23.0,29.65,SE,135,2.0,4.0,0,0.00,,,0.04,Rainwise IP-100,2013-06-26 17:00:00,
2013-06-26 13:05:00,64.1,-23.0,29.65,ENE,67,0.0,3.0,0,0.00,,,0.04,Rainwise IP-100,2013-06-26 17:05:00,
2013-06-26 13:10:00,64.1,-23.0,29.65,SSE,157,1.0,3.0,0,0.00,,,0.04,Rainwise IP-100,2013-06-26 17:10:00,
2013-06-26 13:15:00,64.0,-23.0,29.65,NE,45,2.0,7.0,0,0.00,,,0.04,Rainwise IP-100,2013-06-26 17:15:00,
2013-06-26 13:20:00,63.9,-23.0,29.65,ESE,112,0.0,3.0,0,0.00,,,0.04,Rainwise IP-100,2013-06-26 17:20:00,
2013-06-26 13:25:00,64.2,-23.0,29.66,NNW,337,0.0,2.0,0,0.00,,,0.04,Rainwise IP-100,2013-06-26 17:25:00,
2013-06-26 13:30:00,64.4,-23.0,29.66,SE,135,1.0,2.0,0,0.00,,,0.04,Rainwise IP-100,2013-06-26 17:30:00,
2013-06-26 13:35:00,64.6,-23.0,29.66,NNW,337,2.0,3.0,0,0.00,,,0.04,Rainwise IP-100,2013-06-26 17:35:00,
2013-06-26 13:40:00,64.7,-23.0,29.66,SE,135,1.0,2.0,0,0.00,,,0.04,Rainwise IP-100,2013-06-26 17:40:00,
2013-06-26 13:45:00,64.8,-23.0,29.66,ESE,112,0.0,4.0,0,0.00,,,0.04,Rainwise IP-100,2013-06-26 17:45:00,
2013-06-26 13:50:00,64.9,-23.0,29.65,WNW,292,1.0,3.0,0,0.00,,,0.04,Rainwise IP-100,2013-06-26 17:50:00,
2013-06-26 13:55:00,65.2,-23.0,29.65,SSE,157,1.0,4.0,0,0.00,,,0.04,Rainwise IP-100,2013-06-26 17:55:00,
2013-06-26 14:00:00,65.4,-23.0,29.65,ESE,112,4.0,6.0,0,0.00,,,0.04,Rainwise IP-100,2013-06-26 18:00:00,
2013-06-26 14:05:00,65.7,-23.0,29.65,ESE,112,4.0,4.0,0,0.00,,,0.04,Rainwise IP-100,2013-06-26 18:05:00,
2013-06-26 14:10:00,65.6,-23.0,29.65,ESE,112,2.0,4.0,0,0.00,,,0.04,Rainwise IP-100,2013-06-26 18:10:00,
2013-06-26 14:15:00,65.8,-23.0,29.66,ENE,67,2.0,4.0,0,0.00,,,0.04,Rainwise IP-100,2013-06-26 18:15:00,
2013-06-26 14:20:00,65.9,-23.0,29.66,South,180,0.0,2.0,0,0.00,,,0.04,Rainwise IP-100,2013-06-26 18:20:00,
2013-06-26 14:25:00,66.1,-23.0,29.66,SSW,202,1.0,3.0,0,0.00,,,0.04,Rainwise IP-100,2013-06-26 18:25:00,
2013-06-26 14:30:00,66.1,-23.0,29.65,South,180,0.0,2.0,0,0.00,,,0.04,Rainwise IP-100,2013-06-26 18:30:00,
2013-06-26 14:35:00,66.1,-6.0,29.66,SE,135,2.0,4.0,4,0.00,,,0.04,Rainwise IP-100,2013-06-26 18:35:00,
2013-06-26 14:40:00,66.1,-23.0,29.66,SSE,157,1.0,3.0,0,0.00,,,0.04,Rainwise IP-100,2013-06-26 18:40:00,
2013-06-26 14:45:00,66.2,-23.0,29.66,SW,225,1.0,3.0,2,0.00,,,0.04,Rainwise IP-100,2013-06-26 18:45:00,
2013-06-26 14:50:00,66.0,4.0,29.67,North,360,1.0,2.0,8,0.00,,,0.04,Rainwise IP-100,2013-06-26 18:50:00,
2013-06-26 14:55:00,65.9,8.0,29.67,East,90,1.0,2.0,10,0.00,,,0.04,Rainwise IP-100,2013-06-26 18:55:00,
2013-06-26 15:00:00,65.9,-6.0,29.67,South,180,0.0,2.0,5,0.00,,,0.04,Rainwise IP-100,2013-06-26 19:00:00,
2013-06-26 15:05:00,65.6,4.0,29.67,East,90,2.0,2.0,8,0.00,,,0.04,Rainwise IP-100,2013-06-26 19:05:00,
2013-06-26 15:10:00,65.3,-23.0,29.67,NNE,22,0.0,4.0,0,0.00,,,0.04,Rainwise IP-100,2013-06-26 19:10:00,
2013-06-26 15:15:00,65.0,-23.0,29.68,WNW,292,1.0,2.0,1,0.00,,,0.04,Rainwise IP-100,2013-06-26 19:15:00,
2013-06-26 15:20:00,64.9,-23.0,29.67,North,360,1.0,2.0,0,0.00,,,0.04,Rainwise IP-100,2013-06-26 19:20:00,
2013-06-26 15:25:00,64.7,-23.0,29.67,SE,135,1.0,3.0,0,0.00,,,0.04,Rainwise IP-100,2013-06-26 19:25:00,
2013-06-26 15:30:00,64.7,-23.0,29.67,NE,45,2.0,5.0,0,0.00,,,0.04,Rainwise IP-100,2013-06-26 19:30:00,
2013-06-26 15:35:00,64.7,-23.0,29.67,NW,315,2.0,4.0,0,0.00,,,0.04,Rainwise IP-100,2013-06-26 19:35:00,
2013-06-26 15:40:00,64.6,-23.0,29.67,West,270,1.0,3.0,1,0.00,,,0.04,Rainwise IP-100,2013-06-26 19:40:00,
2013-06-26 15:45:00,64.5,-23.0,29.67,NW,315,1.0,4.0,0,0.00,,,0.04,Rainwise IP-100,2013-06-26 19:45:00,
2013-06-26 15:50:00,64.3,-23.0,29.68,WNW,292,3.0,5.0,0,0.00,,,0.04,Rainwise IP-100,2013-06-26 19:50:00,
2013-06-26 15:55:00,64.2,-23.0,29.68,North,360,2.0,3.0,0,0.00,,,0.04,Rainwise IP-100,2013-06-26 19:55:00,
2013-06-26 16:00:00,64.1,-23.0,29.68,East,90,2.0,2.0,0,0.00,,,0.04,Rainwise IP-100,2013-06-26 20:00:00,
2013-06-26 16:05:00,64.0,-23.0,29.68,North,360,2.0,3.0,0,0.00,,,0.04,Rainwise IP-100,2013-06-26 20:05:00,
2013-06-26 16:10:00,63.9,-23.0,29.68,WNW,292,1.0,3.0,0,0.00,,,0.04,Rainwise IP-100,2013-06-26 20:10:00,
2013-06-26 16:15:00,63.9,-23.0,29.68,SSE,157,0.0,2.0,0,0.00,,,0.04,Rainwise IP-100,2013-06-26 20:15:00,
2013-06-26 16:20:00,63.9,-23.0,29.68,ENE,67,1.0,3.0,0,0.00,,,0.04,Rainwise IP-100,2013-06-26 20:20:00,
2013-06-26 16:25:00,63.9,-23.0,29.68,NNW,337,0.0,2.0,0,0.00,,,0.04,Rainwise IP-100,2013-06-26 20:25:00,
2013-06-26 16:30:00,63.8,-23.0,29.68,NW,315,0.0,2.0,0,0.00,,,0.04,Rainwise IP-100,2013-06-26 20:30:00,
2013-06-26 16:35:00,63.8,-23.0,29.68,NNW,337,0.0,2.0,0,0.00,,,0.04,Rainwise IP-100,2013-06-26 20:35:00,
2013-06-26 16:40:00,63.6,-23.0,29.68,SSW,202,1.0,2.0,0,0.00,,,0.04,Rainwise IP-100,2013-06-26 20:40:00,
2013-06-26 16:45:00,63.6,-23.0,29.69,East,90,1.0,2.0,0,0.00,,,0.04,Rainwise IP-100,2013-06-26 20:45:00,
2013-06-26 16:50:00,63.4,-23.0,29.68,SSE,157,1.0,4.0,0,0.00,,,0.04,Rainwise IP-100,2013-06-26 20:50:00,
2013-06-26 16:55:00,63.3,-23.0,29.68,SSE,157,1.0,2.0,0,0.06,,,0.05,Rainwise IP-100,2013-06-26 20:55:00,
2013-06-26 17:00:00,63.1,-23.0,29.68,ESE,112,0.0,3.0,0,0.18,,,0.07,Rainwise IP-100,2013-06-26 21:00:00,
2013-06-26 17:05:00,63.0,-23.0,29.68,WNW,292,2.0,2.0,0,0.12,,,0.07,Rainwise IP-100,2013-06-26 21:05:00,
2013-06-26 17:10:00,62.8,-23.0,29.68,NNW,337,3.0,3.0,0,0.06,,,0.08,Rainwise IP-100,2013-06-26 21:10:00,
2013-06-26 17:15:00,62.6,-23.0,29.68,WNW,292,2.0,3.0,0,0.06,,,0.08,Rainwise IP-100,2013-06-26 21:15:00,
2013-06-26 17:20:00,62.5,-23.0,29.68,WSW,247,1.0,2.0,0,0.00,,,0.08,Rainwise IP-100,2013-06-26 21:20:00,
2013-06-26 17:25:00,62.4,-23.0,29.68,NNW,337,0.0,2.0,0,0.06,,,0.09,Rainwise IP-100,2013-06-26 21:25:00,
2013-06-26 17:30:00,62.3,-23.0,29.68,WNW,292,1.0,4.0,0,0.06,,,0.09,Rainwise IP-100,2013-06-26 21:30:00,
2013-06-26 17:35:00,62.3,-23.0,29.68,WNW,292,0.0,2.0,0,0.00,,,0.09,Rainwise IP-100,2013-06-26 21:35:00,
2013-06-26 17:40:00,62.3,-23.0,29.68,NNW,337,0.0,2.0,0,0.00,,,0.09,Rainwise IP-100,2013-06-26 21:40:00,
2013-06-26 17:45:00,62.3,-23.0,29.68,NE,45,0.0,3.0,0,0.00,,,0.09,Rainwise IP-100,2013-06-26 21:45:00,
2013-06-26 17:50:00,62.3,-23.0,29.68,West,270,2.0,2.0,0,0.00,,,0.09,Rainwise IP-100,2013-06-26 21:50:00,
2013-06-26 17:55:00,62.2,-23.0,29.68,East,90,0.0,2.0,0,0.00,,,0.09,Rainwise IP-100,2013-06-26 21:55:00,
2013-06-26 18:00:00,62.0,-23.0,29.68,NNW,337,2.0,3.0,0,0.00,,,0.09,Rainwise IP-100,2013-06-26 22:00:00,
2013-06-26 18:05:00,61.9,-23.0,29.68,North,360,0.0,4.0,0,0.06,,,0.10,Rainwise IP-100,2013-06-26 22:05:00,
2013-06-26 18:10:00,61.8,-23.0,29.68,West,270,0.0,4.0,0,0.06,,,0.10,Rainwise IP-100,2013-06-26 22:10:00,
2013-06-26 18:15:00,61.7,-23.0,29.68,WSW,247,1.0,4.0,0,0.00,,,0.10,Rainwise IP-100,2013-06-26 22:15:00,
2013-06-26 18:20:00,61.6,-23.0,29.68,East,90,2.0,4.0,0,0.00,,,0.10,Rainwise IP-100,2013-06-26 22:20:00,
2013-06-26 18:25:00,61.5,-23.0,29.68,North,360,1.0,4.0,0,0.00,,,0.10,Rainwise IP-100,2013-06-26 22:25:00,
2013-06-26 18:30:00,61.5,-23.0,29.68,NW,315,2.0,2.0,0,0.00,,,0.10,Rainwise IP-100,2013-06-26 22:30:00,
2013-06-26 18:35:00,61.4,-23.0,29.68,East,90,0.0,3.0,0,0.00,,,0.10,Rainwise IP-100,2013-06-26 22:35:00,
2013-06-26 18:40:00,61.4,-23.0,29.68,ESE,112,0.0,4.0,0,0.00,,,0.10,Rainwise IP-100,2013-06-26 22:40:00,
2013-06-26 18:45:00,61.3,-23.0,29.68,NW,315,0.0,3.0,0,0.00,,,0.10,Rainwise IP-100,2013-06-26 22:45:00,
2013-06-26 18:50:00,61.3,-23.0,29.68,West,270,1.0,2.0,0,0.00,,,0.10,Rainwise IP-100,2013-06-26 22:50:00,
2013-06-26 18:55:00,61.2,-23.0,29.68,ESE,112,0.0,2.0,0,0.00,,,0.10,Rainwise IP-100,2013-06-26 22:55:00,
2013-06-26 19:00:00,61.1,-23.0,29.68,ESE,112,0.0,2.0,0,0.00,,,0.10,Rainwise IP-100,2013-06-26 23:00:00,
2013-06-26 19:05:00,61.0,-23.0,29.68,SSW,202,2.0,2.0,0,0.00,,,0.10,Rainwise IP-100,2013-06-26 23:05:00,
2013-06-26 19:10:00,60.9,-23.0,29.68,WSW,247,2.0,2.0,0,0.00,,,0.10,Rainwise IP-100,2013-06-26 23:10:00,
2013-06-26 19:15:00,60.9,-23.0,29.68,WSW,247,1.0,2.0,0,0.00,,,0.10,Rainwise IP-100,2013-06-26 23:15:00,
2013-06-26 19:20:00,60.8,-23.0,29.68,WSW,247,0.0,2.0,0,0.00,,,0.10,Rainwise IP-100,2013-06-26 23:20:00,
2013-06-26 19:25:00,60.8,-23.0,29.68,SW,225,0.0,2.0,0,0.00,,,0.10,Rainwise IP-100,2013-06-26 23:25:00,
2013-06-26 19:30:00,60.8,-23.0,29.69,SW,225,0.0,0.0,0,0.00,,,0.10,Rainwise IP-100,2013-06-26 23:30:00,
2013-06-26 19:35:00,60.9,-23.0,29.69,SW,225,0.0,0.0,0,0.00,,,0.10,Rainwise IP-100,2013-06-26 23:35:00,
2013-06-26 19:40:00,60.9,-23.0,29.69,SW,225,0.0,0.0,0,0.00,,,0.10,Rainwise IP-100,2013-06-26 23:40:00,
2013-06-26 19:45:00,60.9,-23.0,29.69,SW,225,0.0,0.0,0,0.00,,,0.10,Rainwise IP-100,2013-06-26 23:45:00,
2013-06-26 19:50:00,60.9,-23.0,29.69,SW,225,0.0,0.0,0,0.00,,,0.10,Rainwise IP-100,2013-06-26 23:50:00,
2013-06-26 19:55:00,60.9,-23.0,29.68,SW,225,0.0,0.0,0,0.00,,,0.10,Rainwise IP-100,2013-06-26 23:55:00,
2013-06-26 20:00:00,60.9,-23.0,29.68,SW,225,0.0,0.0,0,0.00,,,0.10,Rainwise IP-100,2013-06-27 00:00:00,
2013-06-26 20:05:00,60.8,-23.0,29.68,SW,225,0.0,0.0,0,0.00,,,0.10,Rainwise IP-100,2013-06-27 00:05:00,
2013-06-26 20:10:00,60.8,-23.0,29.68,NW,315,1.0,2.0,0,0.00,,,0.10,Rainwise IP-100,2013-06-27 00:10:00,
2013-06-26 20:15:00,60.6,-23.0,29.68,WSW,247,0.0,2.0,0,0.00,,,0.10,Rainwise IP-100,2013-06-27 00:15:00,
2013-06-26 20:20:00,60.4,-23.0,29.69,ESE,112,0.0,2.0,0,0.00,,,0.10,Rainwise IP-100,2013-06-27 00:20:00,
2013-06-26 20:25:00,60.4,-23.0,29.69,WNW,292,0.0,2.0,0,0.00,,,0.10,Rainwise IP-100,2013-06-27 00:25:00,
2013-06-26 20:30:00,60.4,-23.0,29.70,WNW,292,0.0,2.0,0,0.00,,,0.10,Rainwise IP-100,2013-06-27 00:30:00,
2013-06-26 20:35:00,60.4,-23.0,29.70,ESE,112,2.0,2.0,0,0.00,,,0.10,Rainwise IP-100,2013-06-27 00:35:00,
2013-06-26 20:40:00,60.4,-23.0,29.69,SE,135,2.0,3.0,0,0.06,,,0.11,Rainwise IP-100,2013-06-27 00:40:00,
2013-06-26 20:45:00,60.2,-23.0,29.68,ESE,112,0.0,4.0,0,0.06,,,0.11,Rainwise IP-100,2013-06-27 00:45:00,
2013-06-26 20:50:00,60.0,-23.0,29.69,North,360,2.0,2.0,0,0.00,,,0.11,Rainwise IP-100,2013-06-27 00:50:00,
2013-06-26 20:55:00,59.9,-23.0,29.69,NNW,337,1.0,2.0,0,0.00,,,0.11,Rainwise IP-100,2013-06-27 00:55:00,
2013-06-26 21:00:00,59.9,-23.0,29.69,WNW,292,0.0,2.0,0,0.00,,,0.11,Rainwise IP-100,2013-06-27 01:00:00,
2013-06-26 21:05:00,59.9,-23.0,29.69,NNW,337,0.0,2.0,0,0.00,,,0.11,Rainwise IP-100,2013-06-27 01:05:00,
2013-06-26 21:10:00,59.9,-23.0,29.69,WSW,247,1.0,2.0,0,0.00,,,0.11,Rainwise IP-100,2013-06-27 01:10:00,
2013-06-26 21:15:00,59.9,-23.0,29.69,SSE,157,2.0,2.0,0,0.00,,,0.11,Rainwise IP-100,2013-06-27 01:15:00,
2013-06-26 21:20:00,59.9,-23.0,29.68,SSE,157,0.0,2.0,0,0.00,,,0.11,Rainwise IP-100,2013-06-27 01:20:00,
2013-06-26 21:25:00,59.9,-23.0,29.68,SSE,157,0.0,2.0,0,0.00,,,0.11,Rainwise IP-100,2013-06-27 01:25:00,
2013-06-26 21:30:00,59.9,-23.0,29.69,West,270,1.0,2.0,0,0.00,,,0.11,Rainwise IP-100,2013-06-27 01:30:00,
2013-06-26 21:35:00,59.8,-23.0,29.69,NW,315,0.0,2.0,0,0.00,,,0.11,Rainwise IP-100,2013-06-27 01:35:00,
2013-06-26 21:40:00,59.7,-23.0,29.69,NW,315,1.0,2.0,0,0.00,,,0.11,Rainwise IP-100,2013-06-27 01:40:00,
2013-06-26 21:45:00,59.7,-23.0,29.70,NW,315,0.0,2.0,0,0.00,,,0.11,Rainwise IP-100,2013-06-27 01:45:00,
2013-06-26 21:50:00,59.6,-23.0,29.70,WNW,292,0.0,1.0,0,0.00,,,0.11,Rainwise IP-100,2013-06-27 01:50:00,
2013-06-26 21:55:00,59.4,-23.0,29.71,West,270,2.0,2.0,0,0.00,,,0.11,Rainwise IP-100,2013-06-27 01:55:00,
2013-06-26 22:00:00,59.4,-23.0,29.71,North,360,0.0,2.0,0,0.00,,,0.11,Rainwise IP-100,2013-06-27 02:00:00,
2013-06-26 22:05:00,59.4,-23.0,29.71,North,360,0.0,2.0,0,0.00,,,0.11,Rainwise IP-100,2013-06-27 02:05:00,
2013-06-26 22:10:00,59.4,-23.0,29.72,WSW,247,2.0,2.0,0,0.00,,,0.11,Rainwise IP-100,2013-06-27 02:10:00,
2013-06-26 22:15:00,59.3,-23.0,29.72,West,270,0.0,2.0,0,0.00,,,0.11,Rainwise IP-100,2013-06-27 02:15:00,
2013-06-26 22:20:00,59.2,-23.0,29.72,East,90,2.0,2.0,0,0.00,,,0.11,Rainwise IP-100,2013-06-27 02:20:00,
2013-06-26 22:25:00,59.2,-23.0,29.72,WSW,247,2.0,2.0,0,0.00,,,0.11,Rainwise IP-100,2013-06-27 02:25:00,
2013-06-26 22:30:00,59.1,-23.0,29.71,East,90,2.0,2.0,0,0.00,,,0.11,Rainwise IP-100,2013-06-27 02:30:00,
2013-06-26 22:35:00,58.9,-23.0,29.70,East,90,2.0,7.0,0,0.00,,,0.11,Rainwise IP-100,2013-06-27 02:35:00,
2013-06-26 22:40:00,58.7,-23.0,29.70,SE,135,3.0,5.0,0,0.00,,,0.11,Rainwise IP-100,2013-06-27 02:40:00,
2013-06-26 22:45:00,58.6,-23.0,29.69,WNW,292,1.0,9.0,0,0.00,,,0.11,Rainwise IP-100,2013-06-27 02:45:00,
2013-06-26 22:50:00,58.5,-23.0,29.70,North,360,3.0,6.0,0,0.00,,,0.11,Rainwise IP-100,2013-06-27 02:50:00,
2013-06-26 22:55:00,58.5,-23.0,29.70,East,90,1.0,5.0,0,0.00,,,0.11,Rainwise IP-100,2013-06-27 02:55:00,
2013-06-26 23:00:00,58.5,-23.0,29.70,WNW,292,1.0,5.0,0,0.00,,,0.11,Rainwise IP-100,2013-06-27 03:00:00,
2013-06-26 23:05:00,58.3,-40.0,29.72,ESE,112,0.0,4.0,0,0.00,,,0.11,Rainwise IP-100,2013-06-27 03:05:00,
2013-06-26 23:10:00,58.2,-40.0,29.71,SE,135,0.0,2.0,0,0.00,,,0.11,Rainwise IP-100,2013-06-27 03:10:00,
2013-06-26 23:15:00,58.2,-40.0,29.72,NNW,337,0.0,2.0,0,0.00,,,0.11,Rainwise IP-100,2013-06-27 03:15:00,
2013-06-26 23:20:00,58.2,-40.0,29.72,West,270,0.0,2.0,0,0.00,,,0.11,Rainwise IP-100,2013-06-27 03:20:00,
2013-06-26 23:25:00,58.1,-40.0,29.72,East,90,1.0,2.0,0,0.00,,,0.11,Rainwise IP-100,2013-06-27 03:25:00,
2013-06-26 23:30:00,58.0,-40.0,29.71,East,90,1.0,2.0,0,0.00,,,0.11,Rainwise IP-100,2013-06-27 03:30:00,
2013-06-26 23:35:00,58.0,-40.0,29.71,SW,225,0.0,2.0,0,0.00,,,0.11,Rainwise IP-100,2013-06-27 03:35:00,
2013-06-26 23:40:00,57.9,-40.0,29.71,East,90,2.0,2.0,0,0.00,,,0.11,Rainwise IP-100,2013-06-27 03:40:00,
2013-06-26 23:45:00,57.9,-40.0,29.70,ESE,112,1.0,2.0,0,0.00,,,0.11,Rainwise IP-100,2013-06-27 03:45:00,
2013-06-26 23:50:00,57.9,-40.0,29.70,ESE,112,0.0,2.0,0,0.00,,,0.11,Rainwise IP-100,2013-06-27 03:50:00,
2013-06-26 23:55:00,57.9,-40.0,29.70,ESE,112,0.0,2.0,0,0.00,,,0.11,Rainwise IP-100,2013-06-27 03:55:00,